SCP
0 0 0 0 0 0 0 0 0 0 0 0 0 0 0 0 0 0 0 0 0 0 0 0 0 0 0 0 0 0 0 0 0 0 0 0 0 0 0 0 0 0 0
0 0 0 0 0 0 0 0 0 0 0 0 0 0 0 0 0 0 0 0 0 0 0 0 0 0 0 0 0 0 0 0 0 0 0 0 0 0 0 0 0 0 0
0 0 0 0 0 0 0 0 0 0 0 0 0 0 0 0 0 0 0 0 0 0 0 0 0 0 0 0 0 0 0 0 0 0 0 0 0 0 0 0 0 0 0
0 0 0 0 -0 0 0 0 0 0 0 0 0 0 0 0 0 0 0 0 0 0 0 0 0 0 0 0 0 0 0 0 0 0 0 0 0 0 0 0 0 0 0
0 0 0 0 0 0 0 0 0 0 0 0 0 0 0 0 0 0 0 0 0 0 0 0 0 0 0 0 0 0 0 0 0 0 0 0 0 0 0 0 0 0 0
0 0 0 0 0 0 0 0 0 0 0 -0 0 0 0 0 0 0 0 0 0 0 0 0 0 0 0 0 0 0 0 0 0 0 0 0 0 0 0 0 0 0 0
0 0 0 0 0 0 0 0 -0 0 -0 0 0 0 0 0 0 0 0 0 0 0 0 0 0 0 0 0 0 0 0 0 0 0 0 0 0 0 0 0 0 0 0
0 0 0 0 0 0 0 0 0 0 0 0 0 0 0 0 0 0 0 0 0 0 0 0 0 0 0 0 0 0 0 0 0 0 0 0 0 0 0 0 0 0 0
0 0 0 0 0 0 0 0 0 0 0 0 0 0 0 0 0 0 0 0 0 0 0 0 0 0 0 0 0 0 0 0 0 0 0 0 0 0 0 0 0 0 0
-0 -0 -0 0 0 0 0 0 0 0 0 0 0 0 0 0 0 0 0 0 0 0 0 0 0 0 0 0 0 0 0 0 0 0 0 0 0 0 0 0 0 0 0
0 -0 -0 0 0 0 0 0 0 0 0 0 0 0 0 0 0 0 0 0 0 0 0 0 0 0 0 0 0 0 0 0 0 0 0 0 0 0 0 0 0 0 0
0 0 0 0 0 0 0 0 0 0 0 0 0 0 0 0 0 0 0 0 0 0 0 0 0 0 0 0 0 0 0 0 0 0 0 0 0 0 0 0 0 0 0
0 0 0 0 0 0 0 0 0 0 0 0 0 0 0 0 0 0 0 0 0 0 0 0 0 0 0 0 0 0 0 0 0 0 0 0 0 0 0 0 0 0 0
0 0 0 0 0 0 0 0 0 0 0 0 0 0 0 0 0 0 0 0 0 0 0 0 0 0 0 0 0 0 0 0 0 0 0 0 0 0 0 0 0 0 0
0 0 0 0 0 0 0 0 0 0 0 0 0 0 0 0 0 0 0 0 0 0 0 0 0 0 0 0 0 0 0 0 0 0 0 0 0 0 0 0 0 0 0
0 0 0 0 0 0 0 0 0 0 0 0 0 0 0 0 0 0 0 0 0 0 0 0 0 0 0 0 0 0 0 0 0 0 0 0 0 0 0 0 0 0 0
0 0 0 0 0 0 0 0 0 0 0 0 0 0 0 0 0 0 0 0 0 0 0 0 0 0 0 0 0 0 0 0 0 0 0 0 0 0 0 0 0 0 0
0 0 0 0 0 0 0 0 0 0 0 0 0 0 0 0 0 0 0 0 0 0 0 0 0 0 0 0 0 0 0 0 0 0 0 0 0 0 0 0 0 0 0
0 0 0 0 0 0 0 0 0 0 0 0 0 0 0 0 0 0 0 0 0 0 0 0 0 0 0 0 0 0 0 0 0 0 0 0 0 0 0 0 0 0 0
0 0 0 0 0 0 0 0 0 0 0 0 0 0 0 0 0 0 0 0 0 0 0 0 0 0 0 0 0 0 0 0 0 0 0 0 0 0 0 0 0 0 0
0 0 0 0 0 0 0 0 0 0 0 0 0 0 0 0 0 0 0 0 0 0 0 0 0 0 0 0 0 0 0 0 0 0 0 0 0 0 0 0 0 0 0
0 0 0 0 0 0 0 0 0 0 0 0 0 0 0 0 0 0 0 0 0 0 0 0 0 0 0 0 0 0 0 0 0 0 0 0 0 0 0 0 0 0 0
0 0 0 0 0 0 0 0 0 0 0 0 0 0 0 0 0 0 0 0 0 0 0 0 0 0 0 0 0 0 0 0 0 0 0 0 0 0 0 0 0 0 0
0 0 0 0 0 0 0 0 0 0 0 0 0 0 0 0 0 0 0 0 0 0 0 0 0 0 0 0 0 0 0 0 0 0 0 0 0 0 0 0 0 0 0
0 0 0 0 0 0 0 0 0 0 0 0 0 0 0 0 0 0 0 0 0 0 0 0 0 0 0 0 0 0 0 0 0 0 0 0 0 0 0 0 0 0 0
0 0 0 0 0 0 0 0 0 0 -0 -0 0 0 0 0 0 0 0 0 0 0 0 0 0 0 0 0 0 0 0 0 0 0 0 0 0 0 0 0 0 0 0
Wind_Speed
6 5 4 3 3 3 3 3 3 4 4 4 4 4 4 3 3 3 3 4 3 3 3 3 4 4 4 4 3 4 4 5 7 5 2 1 2 2 2 2 2 3 3
6 5 4 4 4 4 4 4 4 4 4 4 3 3 3 3 3 3 4 4 4 4 4 4 5 3 4 4 3 4 4 4 5 7 4 2 3 2 2 2 2 2 3
6 6 5 5 5 5 4 5 5 5 5 5 4 4 4 4 3 3 3 3 4 4 4 4 5 4 5 4 4 4 4 3 3 4 4 2 2 1 2 2 2 2 3
5 6 5 5 5 5 5 5 4 4 4 5 4 4 4 4 4 4 4 4 4 4 5 4 5 4 5 4 4 4 4 4 4 4 4 3 3 2 1 2 3 2 3
5 5 5 5 5 5 5 5 5 4 4 4 4 4 4 4 4 5 5 5 5 5 5 4 4 4 5 5 4 4 4 4 4 4 4 4 3 2 2 2 3 3 3
4 4 4 5 5 5 5 5 5 4 4 4 3 4 4 4 6 7 6 4 4 4 5 5 4 4 5 5 5 5 5 5 5 5 5 5 5 3 2 2 2 2 3
3 4 4 4 4 5 6 5 5 5 4 4 4 3 4 5 7 7 7 4 4 4 4 4 4 4 4 4 5 5 5 5 5 5 6 6 4 3 3 4 4 4 4
3 4 4 4 4 4 5 5 5 5 4 4 4 4 3 4 7 7 6 4 3 3 3 3 3 4 4 5 4 4 4 4 4 3 3 4 3 2 3 3 4 3 3
4 4 5 4 5 5 5 5 5 5 5 4 4 4 4 4 6 7 7 3 3 3 3 3 3 4 5 6 4 4 4 4 3 3 3 3 4 4 3 1 1 2 3
5 5 5 4 5 5 6 6 5 5 5 5 5 4 4 5 6 7 7 3 3 3 3 3 3 4 6 5 3 3 4 4 4 3 3 3 3 3 3 1 1 2 2
5 5 5 5 5 6 6 5 5 5 5 5 5 4 4 5 6 7 7 3 3 4 3 3 3 6 7 6 4 3 5 5 3 2 2 2 2 2 2 2 2 2 3
5 6 6 6 6 5 6 6 5 5 5 6 5 5 3 3 4 6 8 6 5 4 4 3 4 7 7 6 4 4 5 4 2 1 1 1 2 2 3 3 3 2 2
6 6 7 7 6 6 5 6 5 5 4 5 4 5 4 3 4 7 8 7 7 4 4 6 6 7 6 4 4 5 3 2 1 1 1 2 2 2 2 2 2 2 2
6 7 7 6 6 6 5 4 4 4 5 5 5 5 5 4 3 3 3 4 5 5 4 4 5 5 4 4 3 3 2 1 1 1 1 1 2 2 2 2 2 2 2
6 7 7 6 6 5 5 5 6 5 6 6 5 5 5 5 6 9 6 4 4 4 3 2 2 2 2 2 2 2 2 1 1 1 1 1 1 2 2 2 2 2 2
6 6 5 5 5 5 5 6 8 9 11 12 11 10 7 9 12 11 11 10 9 7 3 2 2 2 2 2 2 2 1 1 1 1 1 1 1 1 2 2 2 1 2
6 6 5 5 5 5 5 5 6 7 9 11 11 12 11 11 11 11 10 9 7 5 2 2 2 2 2 2 2 1 2 1 1 1 1 1 1 1 2 2 2 2 2
6 7 6 5 5 5 5 5 5 6 6 6 7 10 11 11 10 9 8 6 3 2 2 2 2 2 2 2 2 1 1 1 1 1 1 1 1 1 2 2 2 2 3
6 5 5 5 5 5 5 5 5 6 6 6 5 6 7 8 8 7 5 2 3 3 2 2 2 2 2 2 2 2 1 1 1 1 1 1 1 1 2 2 2 3 3
5 7 6 5 5 5 5 5 5 5 5 5 5 4 3 3 3 3 3 2 2 3 2 2 2 2 2 2 2 1 1 1 1 1 1 1 1 1 2 3 2 2 3
5 5 6 5 5 5 5 5 5 5 5 5 5 5 7 4 3 3 3 3 3 3 3 2 2 2 2 2 2 2 2 2 2 1 1 1 1 1 2 2 2 3 3
5 5 4 5 5 5 5 5 5 5 5 6 5 4 7 4 3 3 3 3 3 2 2 2 2 2 2 2 2 2 2 2 2 2 2 2 1 2 2 2 2 2 3
4 5 5 5 4 5 5 4 4 5 5 4 4 3 3 3 3 3 3 3 3 2 2 2 2 2 2 2 2 3 3 3 3 3 3 2 2 2 2 2 3 3 3
4 5 5 5 4 4 4 4 4 4 4 4 3 3 3 3 3 4 3 3 3 2 2 2 2 3 3 3 2 2 2 3 3 3 4 3 3 3 2 3 3 4 3
4 4 4 4 4 4 4 4 4 4 3 4 3 3 3 3 4 4 3 3 3 3 3 2 2 3 3 4 3 3 4 5 4 3 3 3 4 4 3 3 3 3 3
4 4 4 4 4 4 4 4 4 4 4 4 4 3 3 4 4 4 3 2 2 3 3 2 3 3 4 3 4 5 5 5 5 5 4 3 4 4 3 3 4 3 4
Wind_Direction
11 7 9 10 18 20 14 1 353 349 347 343 342 340 338 335 331 328 324 326 311 303 297 276 271 270 263 260 255 253 250 246 257 267 253 253 218 235 257 253 251 249 250
9 11 13 9 13 17 6 358 355 352 346 339 338 337 336 333 331 331 322 318 315 310 310 299 281 281 275 268 263 260 256 251 254 265 263 256 251 239 247 255 266 273 265
11 13 16 15 13 10 3 357 356 351 347 346 346 339 333 328 328 323 313 314 310 304 301 299 300 291 275 270 266 266 267 271 263 259 265 260 258 253 267 267 266 263 273
10 10 10 9 7 3 357 353 353 351 347 344 340 335 329 329 332 330 324 319 312 306 303 301 302 302 297 297 284 279 277 273 268 259 260 261 255 258 254 264 278 269 273
8 7 2 357 357 356 351 348 346 345 340 335 337 338 342 342 345 343 330 317 310 309 312 315 314 317 317 304 294 290 280 269 266 262 258 259 252 252 253 258 268 285 277
358 352 348 347 348 347 341 340 339 337 334 334 333 333 337 339 344 345 339 325 321 318 315 314 313 317 321 310 302 298 288 275 270 265 260 257 258 257 258 258 265 280 276
343 339 340 337 336 333 330 333 329 325 326 327 324 324 325 333 341 344 344 331 322 317 316 320 325 329 321 316 315 312 302 288 273 269 267 267 272 272 261 252 249 255 258
329 330 331 329 326 326 326 323 320 318 317 313 314 314 314 326 333 333 333 326 321 321 319 318 320 324 331 329 322 319 313 307 304 286 274 282 289 294 273 266 265 273 276
325 325 323 322 320 320 318 313 311 310 308 308 308 312 308 310 320 323 325 314 317 318 321 325 324 320 325 329 325 316 311 310 326 316 306 310 321 323 321 303 267 266 278
313 313 315 315 312 309 307 306 306 304 301 304 303 303 303 303 309 317 321 311 312 312 308 306 304 311 313 323 316 307 305 311 319 324 327 334 333 340 351 321 265 253 267
313 314 314 313 308 303 302 302 301 300 300 298 296 295 296 301 305 310 316 315 308 304 302 307 304 310 309 310 310 298 294 305 304 306 318 336 354 1 360 353 335 277 261
317 313 310 308 304 304 299 299 299 297 295 293 293 293 292 296 302 304 305 304 309 299 299 303 302 310 312 314 314 310 311 315 308 310 323 338 350 349 349 348 345 337 307
312 305 303 302 299 298 293 294 295 291 288 289 290 292 293 293 293 299 300 297 298 298 295 297 304 309 313 315 313 314 321 321 310 310 315 320 329 327 338 343 345 341 325
301 299 298 297 295 293 290 286 283 282 283 284 285 286 290 291 289 294 295 295 290 290 295 293 292 299 305 307 312 319 313 303 292 288 312 320 335 345 351 344 331 333 331
298 297 297 293 292 294 289 283 283 273 269 277 275 274 280 281 279 289 293 286 283 278 298 300 296 302 304 304 313 318 317 328 330 323 314 324 344 346 339 344 336 340 325
295 295 295 294 292 291 292 295 288 286 287 282 278 277 275 278 287 288 287 287 289 288 290 271 275 279 281 285 293 306 320 331 334 335 331 322 324 328 331 337 340 334 321
281 287 290 289 288 288 288 289 294 297 291 288 286 285 284 285 288 291 290 289 284 278 264 261 265 270 277 279 280 287 298 310 319 321 321 320 321 320 315 317 326 327 317
282 281 278 280 280 280 280 281 282 287 294 292 292 291 292 290 291 294 295 295 276 269 259 253 261 268 271 269 273 279 286 300 312 312 310 306 305 303 301 300 303 301 304
283 281 280 279 278 277 277 277 276 277 278 285 291 290 291 292 294 293 299 274 264 264 261 261 262 265 267 263 262 265 266 267 260 258 264 274 281 290 288 288 290 295 296
277 276 278 279 278 276 273 272 274 275 277 278 279 286 288 284 276 277 275 261 258 263 261 261 268 271 266 261 259 258 263 256 242 241 248 252 257 261 268 276 281 289 289
280 278 274 274 270 271 272 269 270 272 272 273 273 275 282 278 270 271 272 265 258 258 257 256 258 257 259 255 249 244 243 251 246 237 241 246 248 263 269 270 275 279 285
279 278 275 271 271 270 270 271 269 268 268 272 277 280 285 283 269 267 268 268 264 261 256 250 251 251 244 241 238 235 237 242 236 226 234 247 255 260 265 270 280 288 290
280 281 281 276 272 272 274 268 265 265 267 268 272 275 274 271 268 268 270 271 270 269 261 246 251 259 256 250 241 230 230 233 229 214 217 230 240 247 251 258 263 273 278
279 276 277 280 278 274 273 274 270 267 268 271 272 272 271 271 271 271 271 274 272 268 262 252 248 250 252 257 257 250 243 241 227 216 208 215 229 240 242 251 257 259 266
279 277 277 278 278 276 277 277 277 276 275 275 275 275 275 275 276 277 277 274 273 272 270 265 257 252 248 250 255 255 252 253 245 220 208 211 220 226 231 241 250 260 265
283 282 282 283 282 281 278 279 281 280 278 278 276 274 274 276 278 280 280 277 277 276 273 267 257 255 256 260 258 259 255 247 236 224 209 205 212 222 223 236 245 255 262